Ozona, TX

5:53 PM CDT on October 18, 2017 (GMT -0500)
Ozona Municipal

Weather History for KOZA - March, 2013

Change the Weather History Date:

Saturday, March 16, 2013

  Actual Average Record
Temperature  
Mean Temperature 69 °F -  
Max Temperature 87 °F 72 °F 87 °F (2013)
Min Temperature 51 °F 41 °F 37 °F (2014)
Cooling Degree Days 4    
Growing Degree Days 19 (Base 50)    
Moisture  
Dew Point 39 °F    
Average Humidity 38    
Maximum Humidity 76    
Minimum Humidity 14    
Precipitation  
Precipitation 0.00 in - - ()
Sea Level Pressure  
Sea Level Pressure 29.85 in    
Wind  
Wind Speed 10 mph (SSW)    
Max Wind Speed 21 mph    
Max Gust Speed 24 mph    
Visibility 10 miles    
Events      
Averages and records for this station are not official NWS values.
T = Trace of Precipitation, MM = Missing Value Source: NWS Daily Summary

Daily Weather History Graph

Daily Weather History Graph

Search for Another Location

Airport or City:

Trip Planner

Search our weather history database for the weather conditions in past years. The results will help you decide how hot, cold, wet, or windy it might be!

Date:

Astronomy

Mar. 16, 2013 Rise Set
Actual Time 7:53 AM CDT 7:53 PM CDT
Civil Twilight 7:29 AM CDT 8:17 PM CDT
Nautical Twilight 7:01 AM CDT 8:45 PM CDT
Astronomical Twilight 6:33 AM CDT 9:14 PM CDT
Moon 10:44 AM CDT (3/16) No Moon Set
Length of Visible Light 12h 48m
Length of Day
12h 00m
Waxing Crescent, 23% of the Moon is Illuminated
Mar 16
Waxing Crescent
Mar 19
First Quarter
Mar 27
Full
Apr 2
Last Quarter
Apr 10
New

Hourly Weather History & Observations

Time (CDT) Temp. Dew Point Humidity Pressure Visibility Wind Dir Wind Speed Gust Speed Precip Events Conditions
12:15 AM 62.6 °F 37.4 °F 39% 29.99 in 10.0 mi South 11.5 mph - N/A   Clear
12:35 AM 62.6 °F 37.4 °F 39% 29.98 in 10.0 mi South 9.2 mph - N/A   Clear
12:55 AM 60.8 °F 37.4 °F 42% 29.97 in 10.0 mi SSW 8.1 mph - N/A   Clear
1:15 AM 62.6 °F 35.6 °F 37% 29.96 in 10.0 mi SSW 8.1 mph - N/A   Clear
1:35 AM 60.8 °F 35.6 °F 39% 29.96 in 10.0 mi SSW 6.9 mph - N/A   Clear
1:55 AM 60.8 °F 35.6 °F 39% 29.95 in 10.0 mi SSW 4.6 mph - N/A   Clear
2:15 AM 59.0 °F 35.6 °F 42% 29.94 in 10.0 mi South 5.8 mph - N/A   Clear
2:35 AM 60.8 °F 35.6 °F 39% 29.94 in 10.0 mi SSW 5.8 mph - N/A   Clear
2:55 AM 60.8 °F 35.6 °F 39% 29.93 in 10.0 mi SSW 4.6 mph - N/A   Clear
3:15 AM 59.0 °F 35.6 °F 42% 29.93 in 10.0 mi SSW 6.9 mph - N/A   Clear
3:35 AM 60.8 °F 37.4 °F 42% 29.92 in 10.0 mi South 6.9 mph - N/A   Clear
3:55 AM 60.8 °F 39.2 °F 45% 29.92 in 10.0 mi South 10.4 mph 18.4 mph N/A   Clear
4:15 AM 60.8 °F 41.0 °F 48% 29.91 in 10.0 mi SSW 8.1 mph - N/A   Clear
4:35 AM 59.0 °F 41.0 °F 51% 29.91 in 10.0 mi South 6.9 mph - N/A   Clear
4:55 AM 59.0 °F 42.8 °F 55% 29.91 in 10.0 mi South 9.2 mph - N/A   Clear
5:15 AM 57.2 °F 42.8 °F 59% 29.90 in 10.0 mi South 8.1 mph - N/A   Clear
5:35 AM 55.4 °F 44.6 °F 67% 29.90 in 10.0 mi South 10.4 mph - N/A   Clear
5:55 AM 55.4 °F 44.6 °F 67% 29.89 in 10.0 mi SSW 9.2 mph - N/A   Clear
6:15 AM 55.4 °F 44.6 °F 67% 29.89 in 10.0 mi South 9.2 mph - N/A   Clear
6:35 AM 55.4 °F 44.6 °F 67% 29.89 in 10.0 mi South 8.1 mph - N/A   Clear
6:55 AM 53.6 °F 44.6 °F 72% 29.90 in 10.0 mi SSW 6.9 mph - N/A   Clear
7:15 AM 53.6 °F 44.6 °F 72% 29.91 in 10.0 mi SSW 8.1 mph - N/A   Clear
7:35 AM 53.6 °F 44.6 °F 72% 29.90 in 10.0 mi SSW 8.1 mph - N/A   Clear
7:55 AM 51.8 °F 44.6 °F 76% 29.91 in 10.0 mi SSW 4.6 mph - N/A   Clear
8:15 AM 51.8 °F 44.6 °F 76% 29.91 in 10.0 mi SSW 5.8 mph - N/A   Clear
8:35 AM 53.6 °F 44.6 °F 72% 29.91 in 10.0 mi SSW 4.6 mph - N/A   Clear
8:55 AM 55.4 °F 46.4 °F 72% 29.91 in 10.0 mi SSW 8.1 mph - N/A   Clear
9:15 AM 55.4 °F 46.4 °F 72% 29.91 in 10.0 mi SSW 11.5 mph 16.1 mph N/A   Clear
9:35 AM 59.0 °F 46.4 °F 63% 29.91 in 10.0 mi South 12.7 mph - N/A   Clear
9:55 AM 60.8 °F 46.4 °F 59% 29.91 in 10.0 mi South 13.8 mph 19.6 mph N/A   Clear
10:15 AM 62.6 °F 46.4 °F 55% 29.91 in 10.0 mi South 15.0 mph 19.6 mph N/A   Clear
10:35 AM 62.6 °F 46.4 °F 55% 29.91 in 10.0 mi South 15.0 mph - N/A   Clear
10:55 AM 66.2 °F 46.4 °F 49% 29.91 in 10.0 mi South 15.0 mph - N/A   Clear
11:15 AM 68.0 °F 46.4 °F 46% 29.91 in 10.0 mi SSW 17.3 mph 20.7 mph N/A   Clear
11:35 AM 69.8 °F 44.6 °F 40% 29.91 in 10.0 mi SSW 16.1 mph - N/A   Clear
11:55 AM 71.6 °F 42.8 °F 35% 29.90 in 10.0 mi SSW 13.8 mph 21.9 mph N/A   Clear
12:15 PM 73.4 °F 42.8 °F 33% 29.90 in 10.0 mi SSW 17.3 mph 21.9 mph N/A   Clear
12:35 PM 77.0 °F 42.8 °F 29% 29.89 in 10.0 mi South 18.4 mph 24.2 mph N/A   Clear
12:55 PM 77.0 °F 41.0 °F 28% 29.88 in 10.0 mi SSW 16.1 mph 21.9 mph N/A   Clear
1:15 PM 78.8 °F 41.0 °F 26% 29.87 in 10.0 mi SSW 16.1 mph 20.7 mph N/A   Clear
1:35 PM 80.6 °F 39.2 °F 23% 29.86 in 10.0 mi SSW 13.8 mph 19.6 mph N/A   Clear
1:55 PM 82.4 °F 37.4 °F 20% 29.84 in 10.0 mi SSW 16.1 mph 24.2 mph N/A   Clear
2:15 PM 82.4 °F 37.4 °F 20% 29.84 in 10.0 mi SSW 17.3 mph 24.2 mph N/A   Clear
2:35 PM 84.2 °F 35.6 °F 18% 29.81 in 10.0 mi South 16.1 mph 21.9 mph N/A   Clear
2:55 PM 86.0 °F 33.8 °F 15% 29.80 in 10.0 mi SSW 15.0 mph 21.9 mph N/A   Clear
3:15 PM 86.0 °F 33.8 °F 15% 29.79 in 10.0 mi South 17.3 mph 23.0 mph N/A   Clear
3:35 PM 87.8 °F 33.8 °F 15% 29.77 in 10.0 mi South 12.7 mph 20.7 mph N/A   Clear
3:55 PM 87.8 °F 33.8 °F 15% 29.77 in 10.0 mi South 15.0 mph 20.7 mph N/A   Clear
4:15 PM 87.8 °F 33.8 °F 15% 29.76 in 10.0 mi SSW 12.7 mph 19.6 mph N/A   Clear
4:35 PM 87.8 °F 32.0 °F 14% 29.75 in 10.0 mi South 11.5 mph 23.0 mph N/A   Clear
4:55 PM 87.8 °F 33.8 °F 15% 29.74 in 10.0 mi South 15.0 mph 20.7 mph N/A   Clear
5:15 PM 87.8 °F 33.8 °F 15% 29.74 in 10.0 mi SSW 12.7 mph 20.7 mph N/A   Clear
5:35 PM 87.8 °F 33.8 °F 15% 29.73 in 10.0 mi SSW 11.5 mph - N/A   Clear
5:55 PM 87.8 °F 33.8 °F 15% 29.73 in 10.0 mi South 12.7 mph 20.7 mph N/A   Clear
6:15 PM 86.0 °F 33.8 °F 15% 29.73 in 10.0 mi South 18.4 mph 23.0 mph N/A   Clear
6:35 PM 86.0 °F 33.8 °F 15% 29.73 in 10.0 mi South 16.1 mph 23.0 mph N/A   Clear
6:55 PM 84.2 °F 33.8 °F 16% 29.73 in 10.0 mi South 20.7 mph 24.2 mph N/A   Clear
7:15 PM 82.4 °F 33.8 °F 17% 29.73 in 10.0 mi South 17.3 mph 23.0 mph N/A   Clear
7:35 PM 80.6 °F 33.8 °F 18% 29.73 in 10.0 mi South 16.1 mph 20.7 mph N/A   Clear
7:55 PM 78.8 °F 33.8 °F 20% 29.73 in 10.0 mi South 11.5 mph - N/A   Clear
8:15 PM 78.8 °F 33.8 °F 20% 29.73 in 10.0 mi South 9.2 mph - N/A   Clear
8:35 PM 77.0 °F 33.8 °F 21% 29.73 in 10.0 mi South 8.1 mph - N/A   Clear
8:55 PM 75.2 °F 33.8 °F 22% 29.75 in 10.0 mi SSW 5.8 mph - N/A   Clear
9:15 PM 73.4 °F 33.8 °F 23% 29.76 in 10.0 mi SSW 4.6 mph - N/A   Clear
9:35 PM 71.6 °F 35.6 °F 27% 29.76 in 10.0 mi SSW 4.6 mph - N/A   Clear
9:55 PM 69.8 °F 35.6 °F 28% 29.77 in 10.0 mi SSW 3.5 mph - N/A   Clear
10:15 PM 68.0 °F 35.6 °F 30% 29.78 in 10.0 mi Calm Calm - N/A   Clear
10:35 PM 66.2 °F 35.6 °F 32% 29.79 in 10.0 mi SSW 4.6 mph - N/A   Clear
10:55 PM 62.6 °F 33.8 °F 34% 29.79 in 10.0 mi Calm Calm - N/A   Clear
11:15 PM 62.6 °F 33.8 °F 34% 29.79 in 10.0 mi SSW 3.5 mph - N/A   Clear
11:35 PM 62.6 °F 35.6 °F 37% 29.79 in 10.0 mi South 5.8 mph - N/A   Clear
11:55 PM 64.4 °F 37.4 °F 37% 29.79 in 10.0 mi South 9.2 mph - N/A   Clear